CW3518 Weather Reports


time (UTC)temp
C
wind
direction
speed
KPH
gust
KPH
rain 1hr
cm
rain 24hr
cm
rain mn
cm
humidity
%
barometer
mb
20260906221006 36 129 19.3 30.6 0.00 0.00 0.00 39 1011.4
20260906220507 36 127 29.0 30.6 0.00 0.00 0.00 38 1011.3
20260906215506 36 173 9.7 24.1 0.00 0.00 0.00 37 1011.5
20260906215005 36 105 9.7 24.1 0.00 0.00 0.00 38 1011.5
20260906214505 36 154 12.9 24.1 0.00 0.00 0.00 38 1011.7
20260906214005 36 73 12.9 22.5 0.00 0.00 0.00 38 1011.7
20260906213506 35 116 17.7 24.1 0.00 0.00 0.00 39 1011.8
20260906213005 36 89 14.5 24.1 0.00 0.00 0.00 38 1011.9
20260906212506 36 144 16.1 24.1 0.00 0.00 0.00 39 1011.9
20260906212005 36 146 14.5 25.7 0.00 0.00 0.00 39 1012.0
20260906210505 36 135 11.3 24.1 0.00 0.00 0.00 39 1012.2
20260906210005 36 97 20.9 25.7 0.00 0.00 0.00 38 1012.4
20260906205505 36 105 20.9 29.0 0.00 0.00 0.00 39 1012.4
20260906204505 36 128 22.5 29.0 0.00 0.00 0.00 38 1012.4
20260906204005 35 186 11.3 27.4 0.00 0.00 0.00 39 1012.7
20260906203504 35 128 16.1 20.9 0.00 0.00 0.00 38 1012.7
20260906203005 35 134 8.0 29.0 0.00 0.00 0.00 39 1012.7
20260906202504 35 102 11.3 29.0 0.00 0.00 0.00 39 1012.8
20260906202004 35 142 19.3 27.4 0.00 0.00 0.00 39 1012.7
20260906201504 35 123 24.1 29.0 0.00 0.00 0.00 39 1012.8
20260906201034 35 126 11.3 32.2 0.00 0.00 0.00 39 1012.8
20260906200004 35 132 14.5 22.5 0.00 0.00 0.00 40 1012.9
20260906195504 36 154 16.1 29.0 0.00 0.00 0.00 39 1013.0
20260906195004 35 130 12.9 29.0 0.00 0.00 0.00 40 1013.1
20260906194504 35 128 19.3 30.6 0.00 0.00 0.00 40 1013.1
20260906194004 35 125 19.3 30.6 0.00 0.00 0.00 40 1013.1
20260906193504 35 150 24.1 27.4 0.00 0.00 0.00 41 1013.1
20260906193004 35 115 25.7 35.4 0.00 0.00 0.00 40 1013.2
20260906192504 35 113 20.9 35.4 0.00 0.00 0.00 40 1013.2
20260906192004 35 86 35.4 35.4 0.00 0.00 0.00 41 1013.3
20260906191504 35 100 20.9 32.2 0.00 0.00 0.00 42 1013.4
20260906191004 35 112 19.3 32.2 0.00 0.00 0.00 42 1013.4
20260906190004 35 115 20.9 37.0 0.00 0.00 0.00 41 1013.4
20260906185504 35 112 33.8 35.4 0.00 0.00 0.00 42 1013.3
20260906185004 35 132 22.5 35.4 0.00 0.00 0.00 42 1013.4
20260906184503 35 131 30.6 33.8 0.00 0.00 0.00 40 1013.4
20260906184003 35 137 17.7 33.8 0.00 0.00 0.00 40 1013.5
20260906183504 35 125 32.2 38.6 0.00 0.00 0.00 41 1013.5
20260906183003 35 122 24.1 38.6 0.00 0.00 0.00 41 1013.7
20260906182503 34 112 17.7 32.2 0.00 0.00 0.00 43 1013.8
20260906182003 35 97 27.4 32.2 0.00 0.00 0.00 42 1013.8
20260906181503 35 89 19.3 32.2 0.00 0.00 0.00 42 1013.9
20260906180503 34 94 12.9 33.8 0.00 0.00 0.00 44 1014.1
20260906180003 35 105 17.7 30.6 0.00 0.00 0.00 43 1014.1
20260906175503 35 117 17.7 35.4 0.00 0.00 0.00 43 1014.3
20260906175003 34 107 20.9 35.4 0.00 0.00 0.00 43 1014.4
20260906174503 34 103 25.7 30.6 0.00 0.00 0.00 45 1014.4
20260906174003 34 126 30.6 30.6 0.00 0.00 0.00 44 1014.5
20260906173502 34 160 14.5 30.6 0.00 0.00 0.00 45 1014.6
20260906173002 34 103 17.7 32.2 0.00 0.00 0.00 46 1014.7
20260906172502 34 116 22.5 32.2 0.00 0.00 0.00 45 1014.5
20260906172002 34 146 22.5 29.0 0.00 0.00 0.00 45 1014.6
20260906171502 34 126 27.4 29.0 0.00 0.00 0.00 44 1014.6
20260906170502 34 132 16.1 29.0 0.00 0.00 0.00 45 1014.8
20260906170002 34 154 27.4 29.0 0.00 0.00 0.00 45 1014.7
20260906165502 34 180 9.7 25.7 0.00 0.00 0.00 46 1014.9
20260906164002 33 104 12.9 25.7 0.00 0.00 0.00 47 1015.0
20260906163502 33 80 8.0 25.7 0.00 0.00 0.00 47 1015.0
20260906163002 33 96 20.9 22.5 0.00 0.00 0.00 47 1015.0
20260906162502 33 171 9.7 22.5 0.00 0.00 0.00 48 1015.1
20260906162004 33 104 14.5 22.5 0.00 0.00 0.00 49 1015.1
20260906161505 32 86 14.5 24.1 0.00 0.00 0.00 50 1015.0
20260906161002 32 76 12.9 29.0 0.00 0.00 0.00 52 1015.1
20260906160502 32 112 20.9 29.0 0.00 0.00 0.00 50 1015.0
20260906160002 32 83 4.8 20.9 0.00 0.00 0.00 50 1015.0
20260906155502 32 92 19.3 19.3 0.00 0.00 0.00 52 1015.0
20260906155001 32 85 6.4 19.3 0.00 0.00 0.00 53 1015.0
20260906154501 32 92 12.9 17.7 0.00 0.00 0.00 52 1015.0
20260906154002 32 88 11.3 19.3 0.00 0.00 0.00 53 1015.0
20260906153001 32 66 9.7 17.7 0.00 0.00 0.00 53 1014.9
20260906152002 32 77 9.7 16.1 0.00 0.00 0.00 55 1014.8
20260906151501 31 85 11.3 16.1 0.00 0.00 0.00 56 1014.8
20260906150501 31 57 8.0 14.5 0.00 0.00 0.00 59 1014.7
20260906150001 31 58 8.0 14.5 0.00 0.00 0.00 57 1014.7
20260906145501 31 349 3.2 11.3 0.00 0.00 0.00 59 1014.7
20260906145003 30 103 3.2 12.9 0.00 0.00 0.00 61 1014.6
20260906144501 30 88 9.7 12.9 0.00 0.00 0.00 62 1014.7
20260906144001 30 153 6.4 11.3 0.00 0.00 0.00 63 1014.6
20260906143531 30 92 4.8 11.3 0.00 0.00 0.00 64 1014.7
20260906142500 29 101 9.7 12.9 0.00 0.00 0.00 66 1014.7
20260906142001 30 103 9.7 12.9 0.00 0.00 0.00 67 1014.7
20260906141001 29 154 8.0 14.5 0.00 0.00 0.00 69 1014.7
20260906140500 28 126 9.7 14.5 0.00 0.00 0.00 69 1014.7
20260906140000 28 139 11.3 14.5 0.00 0.00 0.00 71 1014.8
20260906135500 28 116 11.3 17.7 0.00 0.00 0.00 72 1014.8
20260906135000 28 151 11.3 17.7 0.00 0.00 0.00 73 1014.9
20260906134500 28 132 14.5 14.5 0.00 0.00 0.00 74 1014.9
20260906134000 27 112 11.3 14.5 0.00 0.00 0.00 75 1014.9
20260906133500 27 126 8.0 11.3 0.00 0.00 0.00 75 1014.9
20260906133000 27 121 9.7 9.7 0.00 0.00 0.00 76 1014.9
20260906132500 27 111 6.4 9.7 0.00 0.00 0.00 77 1014.8
20260906132000 27 108 6.4 9.7 0.00 0.00 0.00 77 1014.8
20260906131500 27 101 6.4 6.4 0.00 0.00 0.00 78 1014.8
20260906131000 26 121 4.8 8.0 0.00 0.00 0.00 80 1014.7
20260906130500 26 119 4.8 9.7 0.00 0.00 0.00 81 1014.7
20260906125000 25 96 8.0 9.7 0.00 0.00 0.00 84 1014.6
20260906124500 25 89 8.0 9.7 0.00 0.00 0.00 85 1014.6
20260906124000 25 85 8.0 8.0 0.00 0.00 0.00 85 1014.6
20260906123500 25 72 6.4 8.0 0.00 0.00 0.00 84 1014.6
20260906122500 25 66 6.4 11.3 0.00 0.00 0.00 85 1014.5
20260906121959 25 83 9.7 12.9 0.00 0.00 0.00 84 1014.5
20260906121459 25 95 9.7 12.9 0.00 0.00 0.00 85 1014.4
20260906121000 25 103 12.9 12.9 0.00 0.00 0.00 85 1014.3
20260906120459 25 78 8.0 9.7 0.00 0.00 0.00 84 1014.2
20260906115959 25 74 6.4 8.0 0.00 0.00 0.00 84 1014.2
20260906115459 25 44 8.0 8.0 0.00 0.00 0.00 84 1014.2
20260906114459 25 27 4.8 4.8 0.00 0.00 0.00 84 1014.1
20260906114000 25 40 4.8 4.8 0.00 0.00 0.00 84 1014.1
20260906113000 25 68 3.2 4.8 0.00 0.00 0.00 84 1014.1
20260906112459 25 71 4.8 6.4 0.00 0.00 0.00 84 1014.0
20260906111959 25 95 4.8 9.7 0.00 0.00 0.00 84 1013.9
20260906111459 25 92 4.8 9.7 0.00 0.00 0.00 83 1013.9
20260906110959 25 90 6.4 8.0 0.00 0.00 0.00 83 1013.9
20260906110500 25 91 6.4 6.4 0.00 0.00 0.00 83 1013.8
20260906105500 25 77 4.8 6.4 0.00 0.00 0.00 82 1013.6
20260906104959 25 97 6.4 6.4 0.00 0.00 0.00 82 1013.6
20260906104459 25 109 4.8 6.4 0.00 0.00 0.00 82 1013.5
20260906103959 25 90 4.8 6.4 0.00 0.00 0.00 81 1013.5
20260906103459 25 75 4.8 6.4 0.00 0.00 0.00 81 1013.5
20260906102459 25 102 4.8 4.8 0.00 0.00 0.00 81 1013.4
20260906101959 25 108 3.2 4.8 0.00 0.00 0.00 81 1013.4
20260906100959 25 62 4.8 6.4 0.00 0.00 0.00 81 1013.4
20260906100459 25 40 4.8 8.0 0.00 0.00 0.00 81 1013.3
20260906100029 25 42 6.4 8.0 0.00 0.00 0.00 81 1013.4
20260906095459 25 41 6.4 8.0 0.00 0.00 0.00 80 1013.4
20260906094959 25 52 8.0 9.7 0.00 0.00 0.00 80 1013.4
20260906092958 26 35 4.8 4.8 0.00 0.00 0.00 78 1013.2
20260906092458 26 22 4.8 4.8 0.00 0.00 0.00 78 1013.2
20260906091458 26 3 3.2 4.8 0.00 0.00 0.00 78 1013.2
20260906090959 26 326 1.6 4.8 0.00 0.00 0.00 77 1013.2
20260906090458 26 327 3.2 4.8 0.00 0.00 0.00 77 1013.2
20260906084458 26 220 4.8 4.8 0.00 0.00 0.00 75 1013.0
20260906083958 26 222 4.8 4.8 0.00 0.00 0.00 75 1013.0
20260906083458 26 219 3.2 4.8 0.00 0.00 0.00 75 1012.9
20260906082458 26 192 3.2 6.4 0.00 0.00 0.00 74 1012.8
20260906081959 26 186 4.8 6.4 0.00 0.00 0.00 74 1012.8
20260906081457 26 194 4.8 8.0 0.00 0.00 0.00 74 1012.8
20260906080957 26 195 4.8 8.0 0.00 0.00 0.00 74 1012.8
20260906080457 26 172 6.4 8.0 0.00 0.00 0.00 75 1012.8
20260906075957 26 180 6.4 8.0 0.00 0.00 0.00 75 1012.9
20260906075458 27 167 6.4 8.0 0.00 0.00 0.00 75 1013.0
20260906074457 27 182 6.4 8.0 0.00 0.00 0.00 74 1012.9
20260906073957 27 174 6.4 8.0 0.00 0.00 0.00 74 1012.9
20260906073457 27 164 8.0 8.0 0.00 0.00 0.00 73 1013.0
20260906072957 27 172 6.4 8.0 0.00 0.00 0.00 73 1013.1
20260906072457 27 162 8.0 8.0 0.00 0.00 0.00 72 1013.1
20260906071527 27 195 6.4 8.0 0.00 0.00 0.00 71 1013.2
20260906070957 27 184 6.4 8.0 0.00 0.00 0.00 71 1013.2
20260906065957 27 198 6.4 6.4 0.00 0.00 0.00 71 1013.2
20260906065457 27 201 6.4 8.0 0.00 0.00 0.00 72 1013.2
20260906064957 27 219 6.4 9.7 0.00 0.00 0.00 72 1013.2
20260906063956 27 235 9.7 11.3 0.00 0.00 0.00 71 1013.1
20260906063456 27 243 9.7 9.7 0.00 0.00 0.00 71 1013.1
20260906062956 27 232 8.0 9.7 0.00 0.00 0.00 70 1013.2
20260906062456 27 227 9.7 9.7 0.00 0.00 0.00 70 1013.2
20260906061956 27 226 6.4 6.4 0.00 0.00 0.00 69 1013.2
20260906061456 27 224 6.4 8.0 0.00 0.00 0.00 69 1013.2
20260906060956 27 224 4.8 9.7 0.00 0.00 0.00 69 1013.3
20260906060456 28 213 6.4 9.7 0.00 0.00 0.00 68 1013.2
20260906060026 28 205 8.0 9.7 0.00 0.00 0.00 68 1013.2
20260906054956 28 177 6.4 9.7 0.00 0.00 0.00 67 1013.2
20260906054456 28 181 8.0 9.7 0.00 0.00 0.00 67 1013.2
20260906054025 28 185 8.0 11.3 0.00 0.00 0.00 67 1013.2
20260906053526 28 186 8.0 11.3 0.00 0.00 0.00 67 1013.2
20260906053025 28 171 11.3 11.3 0.00 0.00 0.00 66 1013.3
20260906052026 28 185 8.0 9.7 0.00 0.00 0.00 65 1013.3
20260906051455 28 184 6.4 8.0 0.00 0.00 0.00 65 1013.3
20260906051026 28 186 8.0 8.0 0.00 0.00 0.00 65 1013.3
20260906050525 28 193 6.4 8.0 0.00 0.00 0.00 65 1013.2
20260906050026 28 194 8.0 9.7 0.00 0.00 0.00 64 1013.2
20260906045525 29 192 6.4 9.7 0.00 0.00 0.00 64 1013.2
20260906044955 29 196 8.0 9.7 0.00 0.00 0.00 64 1013.2
20260906044455 29 173 9.7 9.7 0.00 0.00 0.00 64 1013.3
20260906043455 29 177 8.0 8.0 0.00 0.00 0.00 63 1013.2
20260906042956 29 181 8.0 8.0 0.00 0.00 0.00 63 1013.2
20260906042455 30 180 8.0 8.0 0.00 0.00 0.00 62 1013.2
20260906041954 30 180 6.4 8.0 0.00 0.00 0.00 62 1013.2
20260906041455 30 184 4.8 9.7 0.00 0.00 0.00 62 1013.2
20260906040955 30 184 8.0 12.9 0.00 0.00 0.00 61 1013.2
20260906040454 30 173 8.0 12.9 0.00 0.00 0.00 61 1013.2
20260906040025 30 158 9.7 16.1 0.00 0.00 0.00 61 1013.2
20260906035525 30 171 12.9 16.1 0.00 0.00 0.00 60 1013.2
20260906035024 30 163 12.9 17.7 0.00 0.00 0.00 60 1013.2
20260906034455 30 170 16.1 17.7 0.00 0.00 0.00 59 1013.2
20260906034024 30 172 14.5 17.7 0.00 0.00 0.00 59 1013.2
20260906033524 30 168 17.7 17.7 0.00 0.00 0.00 59 1013.2
20260906033024 30 169 12.9 17.7 0.00 0.00 0.00 58 1013.2
20260906032454 30 158 14.5 19.3 0.00 0.00 0.00 58 1013.2
20260906032024 31 151 16.1 22.5 0.00 0.00 0.00 57 1013.2
20260906031525 31 153 16.1 22.5 0.00 0.00 0.00 57 1013.1
20260906030454 31 147 16.1 22.5 0.00 0.00 0.00 56 1013.0
20260906025524 31 150 16.1 20.9 0.00 0.00 0.00 54 1012.9
20260906024954 31 168 16.1 17.7 0.00 0.00 0.00 53 1012.9
20260906024454 31 155 12.9 17.7 0.00 0.00 0.00 51 1012.9
20260906023454 31 149 14.5 24.1 0.00 0.00 0.00 48 1012.7
20260906023024 32 152 8.0 11.3 0.00 0.00 0.00 46 1012.5
20260906022454 32 125 9.7 11.3 0.00 0.00 0.00 45 1012.4
20260906022024 32 128 11.3 12.9 0.00 0.00 0.00 45 1012.3
20260906021523 32 124 11.3 12.9 0.00 0.00 0.00 44 1012.2
20260906021023 32 124 8.0 11.3 0.00 0.00 0.00 44 1012.2
20260906020023 32 117 8.0 9.7 0.00 0.00 0.00 44 1012.1
20260906015523 32 125 8.0 9.7 0.00 0.00 0.00 44 1012.0
20260906015023 32 138 6.4 11.3 0.00 0.00 0.00 44 1012.0
20260906014523 33 121 9.7 11.3 0.00 0.00 0.00 43 1011.9
20260906014023 33 117 8.0 9.7 0.00 0.00 0.00 43 1011.9
20260906013523 33 114 9.7 9.7 0.00 0.00 0.00 43 1011.8
20260906013023 33 113 8.0 9.7 0.00 0.00 0.00 43 1011.8
20260906012523 33 113 8.0 9.7 0.00 0.00 0.00 43 1011.8
20260906011953 33 111 8.0 9.7 0.00 0.00 0.00 43 1011.7
20260906011452 33 112 8.0 9.7 0.00 0.00 0.00 43 1011.7
20260906011025 33 108 8.0 11.3 0.00 0.00 0.00 42 1011.7
20260906010454 33 111 8.0 11.3 0.00 0.00 0.00 42 1011.5
20260906005955 33 115 9.7 11.3 0.00 0.00 0.00 42 1011.5
20260906005454 33 115 8.0 8.0 0.00 0.00 0.00 42 1011.5
20260906004953 33 115 8.0 11.3 0.00 0.00 0.00 42 1011.5
20260906004454 33 122 9.7 14.5 0.00 0.00 0.00 41 1011.5
20260906003953 34 111 8.0 14.5 0.00 0.00 0.00 41 1011.5
20260906003524 34 124 6.4 12.9 0.00 0.00 0.00 40 1011.5
20260906002523 35 108 6.4 11.3 0.00 0.00 0.00 40 1011.4
20260906002022 35 128 6.4 14.5 0.00 0.00 0.00 39 1011.5
20260906001523 35 123 9.7 14.5 0.00 0.00 0.00 38 1011.4
20260906001022 35 123 11.3 17.7 0.00 0.00 0.00 38 1011.3
20260906000523 35 124 12.9 17.7 0.00 0.00 0.00 38 1011.3
20260905235522 35 120 11.3 17.7 0.00 0.00 0.00 38 1011.2
20260905235024 35 122 14.5 17.7 0.00 0.00 0.00 36 1011.2
20260905234452 35 126 12.9 14.5 0.00 0.00 0.00 36 1011.3
20260905233952 36 142 12.9 17.7 0.00 0.00 0.00 36 1011.2
20260905233452 36 151 8.0 17.7 0.00 0.00 0.00 35 1011.2
20260905232954 36 102 12.9 17.7 0.00 0.00 0.00 37 1011.1
20260905232523 35 116 8.0 19.3 0.00 0.00 0.00 37 1011.1
20260905231951 35 83 19.3 22.5 0.00 0.00 0.00 37 1011.2
20260905231452 35 103 22.5 22.5 0.00 0.00 0.00 36 1011.2
20260905230954 36 105 16.1 17.7 0.00 0.00 0.00 36 1011.2
20260905230451 36 99 11.3 20.9 0.00 0.00 0.00 35 1011.1
20260905225951 36 95 17.7 29.0 0.00 0.00 0.00 35 1011.2
20260905225451 36 112 14.5 29.0 0.00 0.00 0.00 35 1011.1
20260905225021 36 260 1.6 24.1 0.00 0.00 0.00 35 1011.1
20260905224521 36 176 6.4 24.1 0.00 0.00 0.00 35 1011.1
20260905223451 36 109 12.9 22.5 0.00 0.00 0.00 36 1011.2
20260905223021 36 135 12.9 22.5 0.00 0.00 0.00 35 1011.2
20260905222521 36 100 14.5 16.1 0.00 0.00 0.00 36 1011.2